Home   Weather   Ajmān   Past weeks

Flag for United Arab Emirates Past Weather in Ajmān, Ajman, United Arab Emirates — Yesterday and Last 2 Weeks

Now
81 °F

Clear.


Feels Like: 84 °F
Forecast: 76 / 86 °F
Wind: 6 mph from Northwest

Location: Sharjah International Airport

Current Time: Dec 4, 2016 at 6:32:37 pm

Latest Report: Dec 4, 2016 at 6:00 pm


Visibility: 10 mi

Pressure: 30.04 "Hg

Humidity: 70%

Dew Point: 70 °F

Location of AjmānLocation

Past Weather in Ajmān — Graph

°F

Ajmān Temperature Yesterday

Maximum temperature yesterday: 86 °F (at 12:00 pm)
Minimum temperature yesterday: 64 °F (at 2:00 am)
Average temperature yesterday: 74 °F

High & Low Weather Summary for the Past Weeks

 TemperatureHumidityPressure
High88 °F (Nov 22, 2:00 pm)100% (Dec 3, 3:00 am)30.15 "Hg (Dec 3, 3:00 am)
Low61 °F (Nov 27, 7:00 am)29% (Nov 27, 1:00 pm)29.86 "Hg (Nov 20, 2:00 pm)
Average75 °F64%30.02 "Hg
* Reported Nov 19 5:00 pm — Dec 4 5:00 pm, Ajmān, Weather by CustomWeather, © 2016

Note: Actual official high and low records may vary slightly from our data, if they occured in-between our weather recording intervals... More about our weather records

Advertising

Ajmān Weather History for the Previous 24 Hours

Scroll right to see more
 ConditionsComfort  
Time TempWeatherWind HumidityBarometerVisibility
5:00 pm
Sun, Dec 4
84 °FPassing clouds.7 mph58%30.04 "HgN/A
4:00 pm84 °FSunny.10 mph62%30.01 "Hg10 mi
3:00 pm86 °FSunny.9 mph55%30.01 "Hg10 mi
2:00 pm86 °FPassing clouds.7 mph52%30.04 "HgN/A
1:00 pm86 °FSunny.8 mph55%30.04 "Hg10 mi
12:00 pm86 °FClear.6 mph52%30.07 "Hg5 mi
11:00 am82 °FClear.2 mph66%30.09 "Hg5 mi
10:00 am79 °FClear.7 mph74%30.12 "Hg5 mi
9:00 am75 °FClear.5 mph78%30.12 "Hg5 mi
8:00 am72 °FClear.5 mph78%30.12 "Hg5 mi
7:00 am70 °FClear.5 mph83%30.09 "Hg5 mi
6:00 am70 °FClear.6 mph78%30.07 "Hg4 mi
5:00 am70 °FClear.5 mph78%30.07 "Hg4 mi
4:00 am70 °FFog.6 mph78%30.07 "Hg4 mi
3:00 am70 °FClear.6 mph78%30.07 "Hg4 mi
2:00 am70 °FClear.3 mph73%30.07 "Hg4 mi
1:00 am73 °FClear.5 mph74%30.09 "Hg4 mi
12:00 am73 °FClear.3 mph74%30.09 "Hg4 mi
11:00 pm
Sat, Dec 3
72 °FClear.2 mph73%30.09 "Hg4 mi
10:00 pm75 °FClear.2 mph78%30.12 "Hg4 mi
9:00 pm73 °FClear.2 mph74%30.12 "Hg5 mi
8:00 pm77 °FClear.3 mph65%30.12 "Hg5 mi
7:00 pm79 °FClear.5 mph58%30.09 "Hg10 mi
6:00 pm81 °FClear.2 mph51%30.07 "Hg10 mi
Weather by CustomWeather, © 2016

See weather overviewHow to use our weather pages